When you browse on this site, cookies collect data to enhance your experience and personalize the content and advertising you see.
Visit our Privacy Policy to learn more. By continuing to use the site, you agree to this use of cookies and data.
  • In Germany
  • List of Countries
  • For 7 days
  • Water Temperature
  • Weather Map
  • Weather Widgets
  • user-avatar
    Login

    Hourly Weather Ipswich

    Today, 24 October, Thursday

    Time Temperature Precipitation Wind Pressure Humidity
    00:00 +13°C° 0 mm 2 mps 753 mmHg 95%
    01:00 +13°C° 0 mm 2 mps 752 mmHg 95%
    02:00 +13°C° 0 mm 2 mps 752 mmHg 95%
    03:00 +13°C° 0 mm 2 mps 752 mmHg 96%
    04:00 +12°C° 0 mm 2 mps 752 mmHg 96%
    05:00 +12°C° 0 mm 2 mps 751 mmHg 96%
    06:00 +12°C° 0 mm 2 mps 751 mmHg 96%
    07:00 +12°C° 0 mm 3 mps 751 mmHg 95%
    08:00 +13°C° 0 mm 3 mps 751 mmHg 94%
    09:00 +14°C° 0 mm 3 mps 751 mmHg 93%
    10:00 +14°C° 0 mm 4 mps 751 mmHg 89%
    11:00 +15°C° 0 mm 6 mps 750 mmHg 86%
    12:00 +16°C° 0 mm 7 mps 750 mmHg 82%
    13:00 +15°C° 0.5 mm 7 mps 750 mmHg 83%
    14:00 +12°C° 0.5 mm 7 mps 750 mmHg 84%
    15:00 +11°C° 0.5 mm 7 mps 750 mmHg 84%
    16:00 +11°C° 0.1 mm 7 mps 751 mmHg 85%
    17:00 +11°C° 0.1 mm 7 mps 752 mmHg 86%
    18:00 +11°C° 0.1 mm 6 mps 752 mmHg 87%
    19:00 +10°C° 0 mm 6 mps 753 mmHg 87%
    20:00 +10°C° 0 mm 6 mps 754 mmHg 87%
    21:00 +9°C° 0 mm 6 mps 755 mmHg 87%
    22:00 +9°C° 0 mm 6 mps 755 mmHg 87%
    23:00 +9°C° 0 mm 6 mps 756 mmHg 86%

    Tomorrow, 25 October, Friday

    Time Temperature Precipitation Wind Pressure Humidity
    00:00 +8°C° 0 mm 6 mps 757 mmHg 86%
    01:00 +8°C° 0 mm 6 mps 757 mmHg 86%
    02:00 +8°C° 0 mm 6 mps 758 mmHg 86%
    03:00 +8°C° 0 mm 6 mps 758 mmHg 87%
    04:00 +8°C° 0 mm 6 mps 758 mmHg 87%
    05:00 +8°C° 0 mm 6 mps 759 mmHg 88%
    06:00 +7°C° 0 mm 5 mps 759 mmHg 89%
    07:00 +8°C° 0 mm 5 mps 759 mmHg 85%
    08:00 +9°C° 0 mm 6 mps 760 mmHg 82%
    09:00 +10°C° 0 mm 6 mps 760 mmHg 78%
    10:00 +10°C° 0 mm 5 mps 760 mmHg 78%
    11:00 +12°C° 0 mm 5 mps 760 mmHg 78%
    12:00 +12°C° 0 mm 5 mps 760 mmHg 78%
    13:00 +13°C° 0.1 mm 6 mps 759 mmHg 80%
    14:00 +12°C° 0.1 mm 7 mps 758 mmHg 82%
    15:00 +12°C° 0.1 mm 9 mps 758 mmHg 85%
    16:00 +13°C° 0.2 mm 9 mps 757 mmHg 85%
    17:00 +13°C° 0.2 mm 9 mps 757 mmHg 85%
    18:00 +15°C° 0.2 mm 9 mps 756 mmHg 85%
    19:00 +14°C° 0 mm 10 mps 756 mmHg 83%
    20:00 +14°C° 0 mm 11 mps 756 mmHg 81%
    21:00 +14°C° 0 mm 12 mps 756 mmHg 79%
    22:00 +14°C° 0 mm 12 mps 756 mmHg 80%
    23:00 +14°C° 0 mm 12 mps 756 mmHg 80%

    Day after tomorrow, 26 October, Saturday

    Time Temperature Precipitation Wind Pressure Humidity
    00:00 +14°C° 0 mm 12 mps 755 mmHg 81%
    01:00 +14°C° 0 mm 12 mps 755 mmHg 80%
    02:00 +14°C° 0 mm 11 mps 755 mmHg 80%
    03:00 +14°C° 0 mm 11 mps 755 mmHg 80%
    04:00 +14°C° 0 mm 10 mps 755 mmHg 80%
    05:00 +14°C° 0 mm 10 mps 755 mmHg 80%
    06:00 +14°C° 0 mm 10 mps 754 mmHg 80%
    07:00 +14°C° 0 mm 10 mps 754 mmHg 79%
    08:00 +14°C° 0 mm 11 mps 754 mmHg 78%
    09:00 +16°C° 0 mm 11 mps 754 mmHg 76%
    10:00 +16°C° 0 mm 11 mps 754 mmHg 74%
    11:00 +17°C° 0 mm 11 mps 754 mmHg 71%
    12:00 +18°C° 0 mm 12 mps 754 mmHg 69%
    13:00 +17°C° 0 mm 11 mps 753 mmHg 69%
    14:00 +17°C° 0 mm 11 mps 753 mmHg 70%
    15:00 +17°C° 0 mm 10 mps 752 mmHg 70%
    16:00 +17°C° 0 mm 10 mps 753 mmHg 73%
    17:00 +17°C° 0 mm 10 mps 753 mmHg 76%
    18:00 +16°C° 0 mm 10 mps 753 mmHg 80%
    19:00 +16°C° 0.3 mm 9 mps 753 mmHg 82%
    20:00 +15°C° 0.3 mm 9 mps 754 mmHg 84%
    21:00 +15°C° 0.3 mm 8 mps 755 mmHg 86%
    22:00 +12°C° 0.2 mm 7 mps 755 mmHg 81%
    23:00 +10°C° 0.2 mm 7 mps 756 mmHg 76%

    27 October, Sunday

    Time Temperature Precipitation Wind Pressure Humidity
    00:00 +8°C° 0.2 mm 6 mps 757 mmHg 72%
    01:00 +8°C° 0 mm 6 mps 758 mmHg 72%
    02:00 +7°C° 0 mm 6 mps 759 mmHg 72%
    03:00 +6°C° 0 mm 5 mps 759 mmHg 73%
    04:00 +6°C° 0 mm 5 mps 760 mmHg 72%
    05:00 +6°C° 0 mm 4 mps 761 mmHg 72%
    06:00 +6°C° 0 mm 4 mps 761 mmHg 72%
    07:00 +6°C° 0 mm 4 mps 762 mmHg 72%
    08:00 +8°C° 0 mm 3 mps 762 mmHg 72%
    09:00 +8°C° 0 mm 3 mps 763 mmHg 71%
    10:00 +9°C° 0 mm 3 mps 763 mmHg 69%
    11:00 +9°C° 0 mm 3 mps 764 mmHg 67%
    12:00 +10°C° 0 mm 4 mps 764 mmHg 65%
    13:00 +9°C° 0 mm 3 mps 764 mmHg 65%
    14:00 +9°C° 0 mm 3 mps 764 mmHg 64%
    15:00 +9°C° 0 mm 3 mps 764 mmHg 63%
    16:00 +8°C° 0 mm 3 mps 764 mmHg 68%
    17:00 +8°C° 0 mm 3 mps 764 mmHg 73%
    18:00 +7°C° 0 mm 2 mps 764 mmHg 78%
    19:00 +5°C° 0 mm 3 mps 765 mmHg 80%
    20:00 +5°C° 0 mm 3 mps 765 mmHg 82%
    21:00 +4°C° 0 mm 3 mps 765 mmHg 84%
    22:00 +4°C° 0 mm 3 mps 765 mmHg 83%
    23:00 +4°C° 0 mm 3 mps 765 mmHg 83%

    28 October, Monday

    Time Temperature Precipitation Wind Pressure Humidity
    00:00 +3°C° 0 mm 3 mps 765 mmHg 83%
    01:00 +3°C° 0 mm 3 mps 765 mmHg 84%
    02:00 +3°C° 0 mm 3 mps 765 mmHg 85%
    03:00 +3°C° 0 mm 3 mps 765 mmHg 86%
    04:00 +3°C° 0 mm 3 mps 765 mmHg 88%
    05:00 +2°C° 0 mm 3 mps 765 mmHg 91%
    06:00 +2°C° 0 mm 3 mps 765 mmHg 93%
    07:00 +3°C° 0 mm 3 mps 765 mmHg 91%
    08:00 +5°C° 0 mm 3 mps 765 mmHg 88%
    09:00 +7°C° 0 mm 3 mps 765 mmHg 85%
    10:00 +7°C° 0 mm 4 mps 765 mmHg 78%
    11:00 +8°C° 0 mm 5 mps 765 mmHg 70%
    12:00 +9°C° 0 mm 5 mps 765 mmHg 63%
    13:00 +9°C° 0 mm 5 mps 765 mmHg 63%
    14:00 +9°C° 0 mm 5 mps 765 mmHg 64%
    15:00 +8°C° 0 mm 5 mps 765 mmHg 64%
    16:00 +7°C° 0 mm 5 mps 765 mmHg 67%
    17:00 +7°C° 0 mm 5 mps 765 mmHg 70%
    18:00 +6°C° 0 mm 5 mps 765 mmHg 73%
    19:00 +5°C° 0 mm 5 mps 766 mmHg 75%
    20:00 +5°C° 0 mm 5 mps 766 mmHg 78%
    21:00 +5°C° 0 mm 5 mps 766 mmHg 80%
    22:00 +3°C° 0 mm 5 mps 766 mmHg 81%
    23:00 +3°C° 0 mm 5 mps 766 mmHg 81%

    29 October, Tuesday

    Time Temperature Precipitation Wind Pressure Humidity
    00:00 +3°C° 0 mm 5 mps 766 mmHg 82%
    01:00 +3°C° 0 mm 5 mps 766 mmHg 82%
    02:00 +3°C° 0 mm 5 mps 766 mmHg 82%
    03:00 +2°C° 0 mm 5 mps 766 mmHg 82%
    04:00 +2°C° 0 mm 5 mps 766 mmHg 84%
    05:00 +2°C° 0 mm 5 mps 766 mmHg 85%
    06:00 +2°C° 0 mm 5 mps 766 mmHg 87%
    07:00 +3°C° 0 mm 5 mps 766 mmHg 84%
    08:00 +5°C° 0 mm 5 mps 766 mmHg 81%
    09:00 +6°C° 0 mm 5 mps 766 mmHg 79%
    10:00 +7°C° 0 mm 5 mps 766 mmHg 72%
    11:00 +8°C° 0 mm 5 mps 767 mmHg 66%
    12:00 +9°C° 0 mm 5 mps 767 mmHg 60%
    13:00 +9°C° 0 mm 5 mps 767 mmHg 61%
    14:00 +9°C° 0 mm 5 mps 767 mmHg 62%
    15:00 +9°C° 0 mm 5 mps 767 mmHg 63%
    16:00 +8°C° 0 mm 5 mps 767 mmHg 69%
    17:00 +7°C° 0 mm 5 mps 767 mmHg 74%
    18:00 +6°C° 0 mm 5 mps 767 mmHg 79%
    19:00 +5°C° 0 mm 4 mps 768 mmHg 80%
    20:00 +5°C° 0 mm 4 mps 768 mmHg 81%
    21:00 +5°C° 0 mm 4 mps 768 mmHg 82%
    22:00 +5°C° 0 mm 4 mps 769 mmHg 82%
    23:00 +5°C° 0 mm 4 mps 769 mmHg 83%

    30 October, Wednesday

    Time Temperature Precipitation Wind Pressure Humidity
    00:00 +5°C° 0 mm 4 mps 769 mmHg 84%
    01:00 +5°C° 0 mm 4 mps 769 mmHg 85%
    02:00 +5°C° 0 mm 4 mps 769 mmHg 86%
    03:00 +5°C° 0 mm 4 mps 769 mmHg 88%
    04:00 +5°C° 0 mm 4 mps 769 mmHg 87%
    05:00 +5°C° 0 mm 5 mps 770 mmHg 86%
    06:00 +5°C° 0 mm 5 mps 770 mmHg 85%
    07:00 +5°C° 0 mm 5 mps 770 mmHg 80%
    08:00 +6°C° 0 mm 5 mps 770 mmHg 75%
    09:00 +7°C° 0 mm 6 mps 770 mmHg 70%
    10:00 +8°C° 0 mm 6 mps 770 mmHg 66%
    11:00 +8°C° 0 mm 6 mps 770 mmHg 62%
    12:00 +8°C° 0 mm 6 mps 770 mmHg 58%
    13:00 +8°C° 0.1 mm 6 mps 770 mmHg 63%
    14:00 +8°C° 0.1 mm 6 mps 770 mmHg 67%
    15:00 +7°C° 0.1 mm 5 mps 769 mmHg 72%
    16:00 +7°C° 0.1 mm 5 mps 769 mmHg 75%
    17:00 +6°C° 0.1 mm 5 mps 769 mmHg 78%
    18:00 +6°C° 0.1 mm 5 mps 769 mmHg 81%
    19:00 +6°C° 0.1 mm 5 mps 769 mmHg 79%
    20:00 +6°C° 0.1 mm 5 mps 769 mmHg 76%
    21:00 +5°C° 0.1 mm 6 mps 769 mmHg 74%
    22:00 +5°C° 0 mm 6 mps 768 mmHg 74%
    23:00 +5°C° 0 mm 6 mps 768 mmHg 73%
    Show more